This demonstration page uses our WeatherBlox Daily Observations layout. Learn more.

Left ArrowRight Arrow

34.16533, -84.80231

Hourly Observations for June 20, 2022

Temp ( °F °C ) Dew Point ( °F °C ) Humidity (%) Winds ( mph kmh ) Pressure ( in mb ) Visibility ( mi km ) Precip ( " mm )
12:15 am 00:15 Clear 66 19 54 12 64 64 Calm 30.15 1021 10 16 0.00 0.00
12:35 am 00:35 Clear 66 19 54 12 64 64 Calm 30.15 1021 10 16 0.00 0.00
12:55 am 00:55 Clear 66 19 54 12 64 64 Calm 30.15 1021 10 16 0.00 0.00
1:15 am 01:15 Clear 64 18 54 12 68 68 Calm 30.16 1021 10 16 0.00 0.00
1:35 am 01:35 Clear 64 18 55 13 73 73 Calm 30.15 1021 10 16 0.00 0.00
1:55 am 01:55 Clear 63 17 55 13 77 77 Calm 30.15 1021 10 16 0.00 0.00
2:15 am 02:15 Clear 63 17 54 12 73 73 Calm 30.15 1021 10 16 0.00 0.00
2:35 am 02:35 Clear 61 16 54 12 77 77 Calm 30.16 1021 10 16 0.00 0.00
2:55 am 02:55 Clear 61 16 55 13 83 83 Calm 30.16 1021 10 16 0.00 0.00
3:15 am 03:15 Clear 61 16 55 13 83 83 Calm 30.16 1021 10 16 0.00 0.00
3:35 am 03:35 Clear 61 16 55 13 83 83 Calm 30.16 1021 10 16 0.00 0.00
3:55 am 03:55 Clear 61 16 54 12 77 77 Calm 30.16 1021 10 16 0.00 0.00
4:15 am 04:15 Clear 61 16 55 13 83 83 Calm 30.16 1021 10 16 0.00 0.00
4:35 am 04:35 Clear 59 15 55 13 88 88 Calm 30.18 1022 10 16 0.00 0.00
4:55 am 04:55 Clear 59 15 55 13 88 88 Calm 30.18 1022 10 16 0.00 0.00
5:15 am 05:15 Clear 59 15 55 13 88 88 Calm 30.18 1022 10 16 0.00 0.00
5:35 am 05:35 Clear 57 14 55 13 94 94 Calm 30.18 1022 10 16 0.00 0.00
5:55 am 05:55 Clear 57 14 55 13 94 94 Calm 30.19 1022 10 16 0.00 0.00
6:15 am 06:15 Clear 57 14 55 13 94 94 Calm 30.20 1023 10 16 0.00 0.00
6:35 am 06:35 Sunny 57 14 55 13 94 94 Calm 30.21 1023 10 16 0.00 0.00
6:55 am 06:55 Sunny 59 15 55 13 88 88 Calm 30.21 1023 10 16 0.00 0.00
7:15 am 07:15 Sunny 59 15 57 14 94 94 Calm 30.22 1023 10 16 0.00 0.00
7:35 am 07:35 Sunny 61 16 57 14 88 88 Calm 30.22 1023 10 16 0.00 0.00
7:55 am 07:55 Sunny 63 17 59 15 88 88 Calm 30.23 1024 10 16 0.00 0.00
8:15 am 08:15 Sunny 64 18 59 15 83 83 Calm 30.25 1024 10 16 0.00 0.00
8:35 am 08:35 Sunny 68 20 59 15 73 73 VRB 3 6 30.24 1024 10 16 0.00 0.00
8:55 am 08:55 Sunny 70 21 59 15 69 69 E 3 6 30.25 1024 10 16 0.00 0.00
9:15 am 09:15 Mostly Sunny 73 23 59 15 61 61 VRB 5 7 30.24 1024 10 16 0.00 0.00
9:35 am 09:35 Mostly Cloudy 73 23 59 15 61 61 E 6 9 30.24 1024 10 16 0.00 0.00
9:55 am 09:55 Partly Cloudy 75 24 61 16 61 61 ESE 6 9 30.24 1024 10 16 0.00 0.00
10:15 am 10:15 Sunny 77 25 61 16 57 57 E 5 7 30.24 1024 10 16 0.00 0.00
10:35 am 10:35 Sunny 77 25 63 17 61 61 ENE 6 9 30.24 1024 10 16 0.00 0.00
10:55 am 10:55 Sunny 79 26 64 18 61 61 VRB 5 7 30.23 1024 10 16 0.00 0.00
11:15 am 11:15 Sunny 82 28 68 20 62 62 Calm 30.23 1024 10 16 0.00 0.00
11:35 am 11:35 Sunny 81 27 66 19 62 62 Calm 30.22 1024 10 16 0.00 0.00
11:55 am 11:55 Sunny 82 28 66 19 58 58 VRB 5 7 30.22 1023 10 16 0.00 0.00
12:15 pm 12:15 Sunny 84 29 63 17 48 48 VRB 5 7 30.22 1023 10 16 0.00 0.00
12:35 pm 12:35 Sunny 84 29 63 17 48 48 Calm 30.21 1023 10 16 0.00 0.00
12:55 pm 12:55 Sunny 86 30 63 17 46 46 Calm 30.21 1023 10 16 0.00 0.00
1:15 pm 13:15 Sunny 86 30 59 15 40 40 Calm 30.20 1023 10 16 0.00 0.00
1:35 pm 13:35 Sunny 88 31 54 12 31 31 SSW 6 9 30.19 1022 10 16 0.00 0.00
1:55 pm 13:55 Sunny 88 31 57 14 35 35 VRB 3 6 30.19 1022 10 16 0.00 0.00
2:15 pm 14:15 Sunny 88 31 59 15 38 38 VRB 5 7 30.18 1022 10 16 0.00 0.00
2:35 pm 14:35 Sunny 90 32 61 16 38 38 VRB 5 7 30.17 1022 10 16 0.00 0.00
2:55 pm 14:55 Sunny 90 32 61 16 38 38 VRB 7 11 30.17 1022 10 16 0.00 0.00
3:15 pm 15:15 Sunny 90 32 61 16 38 38 NNE 8 13 30.17 1022 10 16 0.00 0.00
3:35 pm 15:35 Sunny 90 32 59 15 36 36 Calm 30.16 1021 10 16 0.00 0.00
3:55 pm 15:55 Sunny 90 32 61 16 38 38 Calm 30.16 1021 10 16 0.00 0.00
4:15 pm 16:15 Sunny 91 33 59 15 34 34 Calm 30.15 1021 10 16 0.00 0.00
4:35 pm 16:35 Sunny 91 33 59 15 34 34 Calm 30.15 1021 10 16 0.00 0.00
4:55 pm 16:55 Sunny 90 32 59 15 36 36 Calm 30.15 1021 10 16 0.00 0.00
5:15 pm 17:15 Sunny 90 32 59 15 36 36 Calm 30.14 1021 8 13 0.00 0.00
5:35 pm 17:35 Sunny 91 33 59 15 34 34 VRB 5 7 30.14 1021 10 16 0.00 0.00
5:55 pm 17:55 Sunny 90 32 59 15 36 36 Calm 30.13 1020 10 16 0.00 0.00
6:15 pm 18:15 Sunny 90 32 57 14 33 33 Calm 30.13 1020 10 16 0.00 0.00
6:35 pm 18:35 Sunny 90 32 59 15 36 36 VRB 3 6 30.13 1020 10 16 0.00 0.00
6:55 pm 18:55 Sunny 90 32 59 15 36 36 VRB 3 6 30.12 1020 10 16 0.00 0.00
7:15 pm 19:15 Sunny 90 32 61 16 38 38 VRB 6 9 30.13 1020 10 16 0.00 0.00
7:35 pm 19:35 Sunny 88 31 59 15 38 38 WSW 3 6 30.13 1020 10 16 0.00 0.00
7:55 pm 19:55 Sunny 88 31 59 15 38 38 W 6 9 30.13 1020 10 16 0.00 0.00
8:15 pm 20:15 Sunny 88 31 59 15 38 38 Calm 30.13 1020 10 16 0.00 0.00
8:35 pm 20:35 Sunny 86 30 59 15 40 40 Calm 30.14 1021 10 16 0.00 0.00
8:55 pm 20:55 Clear 84 29 61 16 45 45 Calm 30.14 1021 10 16 0.00 0.00
9:15 pm 21:15 Clear 82 28 63 17 51 51 Calm 30.14 1021 10 16 0.00 0.00
9:35 pm 21:35 Clear 81 27 64 18 58 58 Calm 30.14 1021 10 16 0.00 0.00
9:55 pm 21:55 Clear 79 26 63 17 58 58 Calm 30.15 1021 10 16 0.00 0.00
10:15 pm 22:15 Clear 77 25 63 17 61 61 Calm 30.15 1021 10 16 0.00 0.00
10:35 pm 22:35 Clear 75 24 64 18 69 69 Calm 30.16 1021 10 16 0.00 0.00
10:55 pm 22:55 Hazy 75 24 64 18 69 69 Calm 30.16 1021 6 10 0.00 0.00
11:15 pm 23:15 Clear 73 23 64 18 74 74 Calm 30.16 1021 10 16 0.00 0.00
11:35 pm 23:35 Clear 73 23 64 18 74 74 Calm 30.16 1021 10 16 0.00 0.00
11:55 pm 23:55 Clear 72 22 64 18 78 78 Calm 30.18 1022 10 16 0.00 0.00

Powered by AerisWeather